[Iaude] MPEC V88: 2016 VL3 [a=1.29,e=0.15,i=2.2,H=24.4]

mpec at si.edu mpec at si.edu
Wed Nov 9 13:23:51 EST 2016


M.P.E.C. 2016-V88                                Issued 2016 Nov.  9, 18:20 UT
 
     The Minor Planet Electronic Circulars contain information on unusual
         minor planets and routine data on comets.  They are published
    on behalf of Division F of the International Astronomical Union by the
          Minor Planet Center, Smithsonian Astrophysical Observatory,
                          Cambridge, MA 02138, U.S.A.

             Prepared using the Tamkin Foundation Computer Network

                              MPC at CFA.HARVARD.EDU
            URL http://www.minorplanetcenter.net/    ISSN 1523-6714


                                   2016 VL3
 
Observations:
     K16V03L* C2016 11 07.37138 03 54 59.78 +17 26 03.9          20.8 VoEV088691
     K16V03L  C2016 11 07.38990 03 54 59.59 +17 26 22.0          21.6 VoEV088691
     K16V03L  C2016 11 07.40842 03 54 59.41 +17 26 38.7          20.8 VoEV088691
     K16V03L KC2016 11 07.45964 03 54 59.14 +17 27 26.1          21.7 RoEV088291
     K16V03L KC2016 11 07.46956 03 54 59.12 +17 27 35.2          21.5 RoEV088291
     K16V03L KC2016 11 07.47896 03 54 59.11 +17 27 43.0                oEV088291
     K16V03L KC2016 11 08.17051 03 55 15.26 +17 39 01.0          20.3 RoEV088291
     K16V03L KC2016 11 08.17541 03 55 15.29 +17 39 06.6          20.5 RoEV088291
     K16V03L KC2016 11 08.18030 03 55 15.27 +17 39 11.7          20.5 RoEV088291
     K16V03L KC2016 11 09.43836 03 55 24.51 +18 00 20.7          19.7 RoEV088291
     K16V03L KC2016 11 09.44435 03 55 24.45 +18 00 26.5          20.1 RoEV088291
     K16V03L KC2016 11 09.45034 03 55 24.40 +18 00 32.0          20.4 RoEV088291
 
Observer details:
291 LPL/Spacewatch II.  Observers A. F. Tubbiolo, R. S. McMillan.  1.8-m f/2.7
    reflector + CCD.
691 Steward Observatory, Kitt Peak.  Observer A. F. Tubbiolo.  0.9-m f/3
    reflector + CCD.
 
Orbital elements:
2016 VL3                                                 Earth MOID = 0.1119 AU
Epoch 2016 July 31.0 TT = JDT 2457600.5                 MPC
M 270.70554              (2000.0)            P               Q
n   0.67071084     Peri.   21.74520     +0.21557602     -0.97598849
a   1.2925455      Node    55.81827     +0.89025962     +0.18331177
e   0.1508195      Incl.    2.16143     +0.40120417     +0.11765743
P   1.47           H   24.4           G   0.15           U   7
Residuals in seconds of arc
161107 691  0.1-  0.1-    161107 291  0.3+  0.3+    161108 291  0.0   0.1-
161107 691  0.3-  0.4+    161107 291  0.5+  0.4-    161109 291  0.0   0.0
161107 691  0.6-  0.3-    161108 291  0.1-  0.1-    161109 291  0.1-  0.1+
161107 291  0.1+  0.1+    161108 291  0.3+  0.1+    161109 291  0.0   0.1-

Ephemeris:
2016 VL3                 a,e,i = 1.29, 0.15, 2                   q = 1.0976
Date    TT    R. A. (2000) Decl.     Delta      r     Elong.  Phase     V
2016 10 10    03 31 24.9 +11 53 39   0.1978  1.1624   142.9    31.2    22.5
...
2016 10 25    03 48 03.2 +14 20 24   0.1566  1.1364   153.2    23.2    21.8
...
2016 11 02    03 53 07.4 +16 04 11   0.1401  1.1248   159.8    17.7    21.3
...
2016 11 08    03 55 09.4 +17 36 37   0.1304  1.1173   165.2    13.1    21.0
2016 11 09    03 55 22.0 +17 53 16   0.1290  1.1162   166.1    12.3    20.9
2016 11 10    03 55 32.6 +18 10 14   0.1277  1.1151   167.0    11.5    20.9
...
2016 11 16    03 55 59.9 +19 58 43   0.1210  1.1091   172.8     6.4    20.5
...
2016 11 24    03 55 25.8 +22 35 46   0.1157  1.1029   177.8     2.0    20.2
...
2016 12 09    03 55 51.7 +27 26 40   0.1168  1.0976   163.9    14.4    20.8

A. U. Tomatic                (C) Copyright 2016 MPC           M.P.E.C. 2016-V88




More information about the Iaude mailing list